Showing default

STARLETTE, 7646

Orbit data source: Space-Track

STARLETTE, 7646 is a payload satellite owned by CNES (FR) in LEO that was launched on Thu, 06 Feb 1975 UTC via a DIAMANT BP.4 launch vehicle from the French Guiana (FRGUI). Payload-class satellites include a variety of spacecraft equipped with specific instruments for various scientific and technological missions. These include communications satellites like Starlink; space stations such as the ISS; scientific satellites like the Hubble; Earth observation satellites from companies like Planet Labs, Umbra, and HawkEye 360; GPS; miniature CubeSats for education and research; and military/defense satellites.

Loading next visibility...
Identifier
7646, 1975-010A
Orbit
LEO
Country
Flag of FRFR
Related business
Manufacturer
CNES
Mission
Operational spacecraft
Bus & Motor
STARLETTE, Unknown motor
Mass
48 kg wet, 48 kg dry
Launch date (UTC)
1975-02-06 (51 years ago)
Launch vehicle
DIAMANT BP.4
Launch site
French Guiana (FRGUI)
Object type
Payload
Rocket body
Debris
Shape & HBR
Unknown
Radar Cross Section
Medium (>0.1 m² and <1 m²)

Expand to show TLE details & history
Last TLE update: 7 hours ago

TLE from 7 hours ago
0 STARLETTE
1  7646U 75010A   26038.10884495 -.00000131  00000-0  98257-5 0  9996
2  7646  49.8227 258.0440 0205548 353.3219   6.4946 13.82348842576549
Epoch: 2026-02-07T02:36Z
TLE epoch observation values (Epoch: 2026-02-07T02:36:44.203Z)
Latitude
-0°
Longitude
81.62273°
Altitude
806.342 km
Speed
7.527 km/s
True Right ascension
17h 12m 10s
True Declination
0° 00' 00"
Sunlit
Object was in daylight at epoch
Visualization orbit readout
Latitude
Unknown
Longitude
Unknown
Altitude
Unknown
Speed
Unknown
Apparent Right ascension
Unknown
Apparent Declination
Unknown
Sunlit
N/A
Visualization observer readout
Local Sidereal Time
12:06:06
Azimuth
Unknown
Elevation
Unknown
Doppler factor
Unknown
Orbital elements
Apogee altitude
1,107.077 km
Perigee altitude
805.561 km
Semi-major axis
7,334.456 km
Eccentricity
0.02055
Inclination
49.8227°
RAAN
258.044°
Arg. of periapsis
353.3219°
True anomaly
6.76799°
Mean anomaly
6.4946°
Eccentric anomaly
6.63059°
Mean motion
3.45534 °/min
Orbital period
104.19 mins
BSTAR
0.0000098257
Loading maneuver chart data...
Computing Atmospheric mass density...
Loading historical data...
Loading historical data...
Loading historical data...
Loading historical data...
Loading historical data...
Loading historical data...
Loading historical data...
Other satellites on launch #10 in the year 1975 (1975-02-06 UTC)

Documentation

Showing up to 5 results
|